Weather History for Nueva Ocotepeque, Honduras

Change the Weather History Date:

Friday, October 19, 2012

  Actual Average (MHTG) Record (MHTG)
Temperature  
Mean Temperature 77 °F -  
Max Temperature 86 °F 79 °F 86 °F (2013)
Min Temperature 68 °F 63 °F 62 °F (1996)
Cooling Degree Days 12    
Growing Degree Days 27 (Base 50)    
Moisture  
Dew Point 72 °F    
Average Humidity 95    
Maximum Humidity 100    
Minimum Humidity 67    
Precipitation  
Precipitation 2.05 in - - ()
Sea Level Pressure  
Sea Level Pressure 29.81 in    
Wind  
Wind Speed 2 mph ()    
Max Wind Speed 15 mph    
Max Gust Speed -    
Visibility 5.8 miles    
Events Rain , Thunderstorm    
Averages and records for this station are not official NWS values.
T = Trace of Precipitation, MM = Missing Value Source: Averaged Metar Reports

Daily Weather History Graph

Daily Weather History Graph

Search for Another Location

Airport:

Trip Planner

Search our weather history database for the weather conditions in past years. The results will help you decide how hot, cold, wet, or windy it might be!

Date:

Astronomy

Oct. 19, 2012 Rise Set
Actual Time 5:42 AM CST 5:27 PM CST
Civil Twilight 5:20 AM CST 5:49 PM CST
Nautical Twilight 4:55 AM CST 6:14 PM CST
Astronomical Twilight 4:30 AM CST 6:39 PM CST
Moon 9:53 AM CST (10/19) 9:36 PM CST (10/19)
Length of Visible Light 12h 28m
Length of Day
11h 45m
Waxing Crescent, 24% of the Moon is Illuminated
Oct 19
Waxing Crescent
Oct 21
First Quarter
Oct 29
Full
Nov 6
Last Quarter
Nov 13
New

Hourly Weather History & Observations

Time (CST) Temp. Heat Index Dew Point Humidity Pressure Visibility Wind Dir Wind Speed Gust Speed Precip Events Conditions
12:06 AM 71.6 °F - 71.6 °F 100% 29.81 in 6.2 mi Calm Calm - N/A   Overcast
12:55 AM 72.3 °F - 72.0 °F 99% 29.78 in 6.2 mi Calm Calm - N/A   Overcast
1:43 AM 71.6 °F - 71.6 °F 100% 29.79 in 6.2 mi West 3.5 mph - N/A   Overcast
1:55 AM 71.8 °F - 71.4 °F 99% 29.79 in 6.2 mi WSW 3.5 mph - N/A   Overcast
2:08 AM 71.6 °F - 71.6 °F 100% 29.78 in 6.2 mi Calm Calm - N/A   Overcast
2:55 AM 71.4 °F - 71.2 °F 99% 29.78 in 6.2 mi North 4.6 mph - N/A   Mostly Cloudy
3:44 AM 71.6 °F - 71.6 °F 100% 29.78 in 6.2 mi Calm Calm - N/A   Overcast
3:55 AM 71.2 °F - 70.9 °F 99% 29.78 in 6.2 mi Calm Calm - N/A   Overcast
4:04 AM 71.6 °F - 71.6 °F 100% 29.79 in 6.2 mi Calm Calm - N/A   Overcast
4:08 AM 71.6 °F - 71.6 °F 100% 29.79 in 6.2 mi Calm Calm - N/A   Overcast
4:32 AM 71.6 °F - 71.6 °F 100% 29.79 in 6.2 mi Calm Calm - N/A   Overcast
4:44 AM 71.6 °F - 71.6 °F 100% 29.80 in 6.2 mi Calm Calm - N/A   Overcast
4:55 AM 71.6 °F - 71.2 °F 99% 29.81 in 6.2 mi Calm Calm - N/A   Overcast
5:33 AM 71.6 °F - 71.6 °F 100% 29.81 in 6.2 mi Calm Calm - N/A   Overcast
5:55 AM 71.8 °F - 71.4 °F 99% 29.82 in 6.2 mi Calm Calm - N/A   Overcast
6:00 AM 68 °F - - %  in 6 mi Calm Calm - -   Haze
6:11 AM 71.6 °F - 71.6 °F 100% 29.82 in 6.2 mi Calm Calm - N/A   Mostly Cloudy
6:35 AM 71.6 °F - 71.6 °F 100% 29.83 in 6.2 mi Calm Calm - N/A   Overcast
6:43 AM 71.6 °F - 71.6 °F 100% 29.83 in 6.2 mi Calm Calm - N/A   Overcast
6:55 AM 72.1 °F - 72.1 °F 100% 29.84 in 6.2 mi Calm Calm - N/A   Overcast
7:00 AM 71.6 °F - 71.6 °F 100% 29.84 in 6.2 mi NW 3.5 mph - N/A Rain Light Rain
7:15 AM 71.6 °F - 71.6 °F 100% 29.84 in 5.0 mi Calm Calm - N/A Rain Light Rain
7:43 AM 71.6 °F - 71.6 °F 100% 29.86 in - Calm Calm - N/A Rain Rain
7:55 AM 71.8 °F - 71.4 °F 99% 29.86 in 3.7 mi Calm Calm - 0.04 in Rain Light Rain
7:57 AM 71.6 °F - 71.6 °F 100% 29.86 in 3.7 mi Calm Calm - N/A Rain Light Rain
8:06 AM 71.6 °F - 71.6 °F 100% 29.86 in 2.5 mi West 3.5 mph - N/A Rain Light Rain
8:07 AM 71.6 °F - 71.6 °F 100% 29.86 in 2.5 mi West 3.5 mph - N/A Rain Light Rain
8:10 AM 71.6 °F - 71.6 °F 100% 29.86 in - West 3.5 mph - N/A Rain Light Rain
8:11 AM 71.6 °F - 71.6 °F 100% 29.86 in - West 3.5 mph - N/A Rain Light Rain
8:23 AM 71.6 °F - 71.6 °F 100% 29.86 in 6.2 mi Calm Calm - N/A   Overcast
8:35 AM 73.4 °F - 71.6 °F 94% 29.87 in 6.2 mi West 3.5 mph - N/A   Overcast
8:55 AM 72.9 °F - 72.7 °F 99% 29.87 in 6.2 mi Calm Calm - 0.06 in   Mostly Cloudy
9:00 AM 78 °F - - %  in 6 mi North 4.6 mph - -   Haze
9:06 AM 73.4 °F - 73.4 °F 100% 29.87 in 6.2 mi Calm Calm - N/A   Mostly Cloudy
9:25 AM 75.2 °F - 71.6 °F 89% 29.87 in 6.2 mi Calm Calm - N/A   Mostly Cloudy
9:45 AM 77.0 °F - 73.4 °F 89% 29.86 in 6.2 mi Calm Calm - N/A   Overcast
9:55 AM 76.3 °F - 73.0 °F 90% 29.86 in 6.2 mi Variable 3.5 mph - N/A   Overcast
10:00 AM 78.8 °F - 73.4 °F 83% 29.86 in 6.2 mi Calm Calm - N/A   Mostly Cloudy
10:24 AM 78.8 °F - 73.4 °F 83% 29.84 in 6.2 mi Calm Calm - N/A   Mostly Cloudy
10:33 AM 78.8 °F - 73.4 °F 83% 29.84 in 6.2 mi WSW 4.6 mph - N/A   Mostly Cloudy
10:55 AM 78.3 °F - 72.3 °F 82% 29.83 in 6.2 mi SW 4.6 mph - N/A   Mostly Cloudy
11:55 AM 80.8 °F 84.7 °F 71.6 °F 73% 29.78 in 6.2 mi Calm Calm - N/A   Overcast
12:00 PM 82 °F - - %  in 6 mi South 4.6 mph - -   Haze
12:55 PM 82.9 °F 87.7 °F 71.2 °F 68% 29.75 in 6.2 mi Calm Calm - N/A   Mostly Cloudy
1:55 PM 84.0 °F 90.2 °F 72.7 °F 69% 29.72 in 6.2 mi South 5.8 mph - N/A   Mostly Cloudy
2:55 PM 83.5 °F 88.5 °F 71.6 °F 67% 29.70 in 6.2 mi South 11.5 mph - N/A   Partly Cloudy
3:00 PM 72 °F - - %  in 2 mi Calm Calm - - Rain , Thunderstorm Thunderstorms and Rain
3:38 PM 84.2 °F 90.9 °F 73.4 °F 70% 29.70 in 6.2 mi South 11.5 mph - N/A Thunderstorm Thunderstorm
3:42 PM 84.2 °F 90.9 °F 73.4 °F 70% 29.71 in 6.2 mi South 15.0 mph - N/A Rain , Thunderstorm Light Thunderstorms and Rain
3:55 PM 79.3 °F - 73.8 °F 83% 29.73 in 6.2 mi South 15.0 mph - 0.00 in Rain , Thunderstorm Light Thunderstorms and Rain
3:56 PM 77.0 °F - 73.4 °F 89% 29.73 in 6.2 mi ESE 8.1 mph - N/A Rain , Thunderstorm Light Thunderstorms and Rain
4:05 PM 75.2 °F - 73.4 °F 94% 29.75 in 3.7 mi Calm Calm - N/A Rain , Thunderstorm Thunderstorms and Rain
4:07 PM 75.2 °F - 73.4 °F 94% 29.76 in 2.5 mi Calm Calm - N/A Rain , Thunderstorm Thunderstorms and Rain
4:12 PM 73.4 °F - 73.4 °F 100% 29.76 in - NE 3.5 mph - N/A Rain , Thunderstorm Light Thunderstorms and Rain
4:14 PM 73.4 °F - 73.4 °F 100% 29.76 in - NE 3.5 mph - N/A Rain , Thunderstorm Light Thunderstorms and Rain
4:18 PM 73.4 °F - 73.4 °F 100% 29.76 in 5.6 mi Calm Calm - N/A Thunderstorm Overcast
4:23 PM 73.4 °F - 73.4 °F 100% 29.76 in 6.2 mi Calm Calm - N/A Thunderstorm Thunderstorm
4:44 PM 73.4 °F - 73.4 °F 100% 29.77 in 6.2 mi WSW 6.9 mph - N/A   Overcast
4:47 PM 73.4 °F - 73.4 °F 100% 29.78 in 6.2 mi WSW 6.9 mph - N/A   Overcast
4:55 PM 73.2 °F - 72.7 °F 98% 29.78 in 6.2 mi WSW 4.6 mph - 0.15 in Thunderstorm Overcast
5:04 PM 73.4 °F - 73.4 °F 100% 29.78 in 6.2 mi NNW 5.8 mph - N/A Thunderstorm Mostly Cloudy
5:09 PM 73.4 °F - 71.6 °F 94% 29.79 in 6.2 mi NNW 9.2 mph - N/A Thunderstorm Mostly Cloudy
5:21 PM 71.6 °F - 71.6 °F 100% 29.88 in 6.2 mi NE 9.2 mph - N/A Rain , Thunderstorm Light Thunderstorms and Rain
5:55 PM 71.8 °F - 71.6 °F 99% 29.81 in 6.2 mi North 6.9 mph - N/A   Overcast
5:59 PM 71.6 °F - 71.6 °F 100% 29.80 in 6.2 mi NNE 5.8 mph - N/A   Overcast
6:00 PM 68 °F - - %  in 2 mi Calm Calm - - Rain , Thunderstorm Thunderstorms and Rain
6:55 PM 71.8 °F - 71.6 °F 99% 29.81 in 6.2 mi West 4.6 mph - N/A   Mostly Cloudy
7:19 PM 71.6 °F - 71.6 °F 100% 29.84 in 6.2 mi Calm Calm - N/A   Light Drizzle
7:23 PM 71.6 °F - 71.6 °F 100% 29.85 in 6.2 mi Calm Calm - N/A   Light Drizzle
7:55 PM 72.0 °F - 71.6 °F 99% 29.86 in 6.2 mi NNW 5.8 mph - 0.00 in   Overcast
8:01 PM 71.6 °F - 71.6 °F 100% 29.87 in 6.2 mi NNW 5.8 mph - N/A   Light Drizzle
8:07 PM 71.6 °F - 71.6 °F 100% 29.86 in 6.2 mi NNW 6.9 mph - N/A   Light Drizzle
8:10 PM 71.6 °F - 71.6 °F 100% 29.86 in 6.2 mi NNW 8.1 mph - N/A   Overcast
8:18 PM 71.6 °F - 71.6 °F 100% 29.86 in 6.2 mi NW 8.1 mph - N/A   Light Drizzle
8:55 PM 71.1 °F - 70.7 °F 99% 29.87 in 6.2 mi NW 8.1 mph - 0.01 in   Light Drizzle
9:55 PM 70.9 °F - 70.5 °F 99% 29.86 in 6.2 mi NNW 6.9 mph - 0.06 in Rain Light Rain
10:55 PM 70.7 °F - 70.3 °F 99% 29.86 in 6.2 mi North 13.8 mph - 0.12 in Rain Light Rain
11:04 PM 69.8 °F - 69.8 °F 100% 29.87 in 6.2 mi North 11.5 mph - N/A Rain Light Rain
11:09 PM 69.8 °F - 69.8 °F 100% 29.87 in 6.2 mi North 10.4 mph - N/A Rain Light Rain
11:55 PM 69.1 °F - 67.8 °F 96% 29.85 in 6.2 mi North 10.4 mph - 0.05 in Rain Light Rain